• Join FlightAware (Why Join?)
  • Login
  • US Flag GB Flag 
11:17 EST


 

Airport Tracker/Info


-or-


 

Live Flight TrackerFlight Track Log ✈ NKS904 ✈ 17-May-2013 ✈ KDFW - KMCO

Flight Track Log - Related Links

Times and Time Zones

All times are in EDT time to prevent confusion due to time zone crossing. See the NKS904 flight status page for this flight to view local times or setup timezone preferences in your user account.

Time Position Orientation Groundspeed Altitude Reporting Facility
EDT Latitude Longitude Course Direction KTS MPH feet Rate Location/Type
12:40 32.8690 -97.0310 181° South 154 177 2,200  Level FlightAware
12:41 32.8550 -97.0310 180° South 175 201 2,500 900 Climbing FlightAware
12:41 32.8370 -97.0310 180° South 209 241 2,800 1,020 Climbing FlightAware
12:41 32.8210 -97.0310 180° South 232 267 3,200 2,040 Climbing FlightAware
12:42 32.7770 -97.0310 180° South 261 300 4,700 2,640 Climbing FlightAware
12:42 32.7390 -97.0300 179° South 273 314 6,100 2,640 Climbing FlightAware
12:43 32.7210 -97.0240 164° South 284 327 6,700 2,640 Climbing FlightAware
12:43 32.7110 -97.0140 140° Southeast 288 331 7,200 2,880 Climbing FlightAware
12:43 32.6990 -96.9940 125° Southeast 299 344 7,900 2,580 Climbing FlightAware
12:43 32.6950 -96.9700 101° East 307 353 8,500 2,520 Climbing FlightAware
12:44 32.7050 -96.9210 76° East 308 354 9,800 1,320 Climbing FlightAware
12:44 32.7220 -96.8580 72° East 310 357 10,100 540 Climbing FlightAware
12:45 32.7430 -96.7810 72° East 338 389 10,600 900 Climbing FlightAware
12:46 32.7640 -96.7070 71° East 376 433 11,400 1,800 Climbing FlightAware
12:47 32.7850 -96.6290 72° East 383 441 13,000 2,400 Climbing FlightAware
12:47 32.8100 -96.5370 72° East 391 450 14,800 2,220 Climbing FlightAware
12:48 32.8330 -96.4530 72° East 402 463 16,200 2,040 Climbing FlightAware
12:49 32.8580 -96.3610 72° East 409 471 17,700 1,920 Climbing FlightAware
12:49 32.8670 -96.2700 83° East 421 484 19,000 1,860 Climbing FlightAware
12:50 32.8690 -96.1610 89° East 431 496 20,400 2,040 Climbing FlightAware
12:51 32.8700 -96.0680 89° East 428 493 21,900 1,800 Climbing FlightAware
12:51 32.8720 -95.9660 89° East 440 506 22,800 1,320 Climbing FlightAware
12:52 32.8738 -95.8553 89° East 450 518 23,800 1,380 Climbing FlightAware ADS-B
12:53 32.8750 -95.7680 89° East 452 520 24,800 1,380 Climbing FlightAware
12:53 32.8760 -95.7079 89° East 455 524 25,200 1,260 Climbing FlightAware ADS-B
12:54 32.8782 -95.5583 89° East 466 536 26,400 1,080 Climbing FlightAware ADS-B
12:55 32.8800 -95.4400 89° East 477 549 27,200 1,020 Climbing FlightAware
12:55 32.8802 -95.3987 90° East 466 536 27,500 1,140 Climbing FlightAware ADS-B
12:55 32.8819 -95.3632 87° East 480 552 27,700 1,020 Climbing FlightAware ADS-B
12:56 32.8869 -95.3244 81° East 480 552 28,000 1,140 Climbing FlightAware ADS-B
12:56 32.8999 -95.2417 79° East 484 557 28,600 1,020 Climbing FlightAware ADS-B
12:57 32.9122 -95.1617 80° East 488 562 29,100 480 Climbing FlightAware ADS-B
12:57 32.9250 -95.0810 79° East 488 562 29,200 900 Climbing FlightAware
12:57 32.9307 -95.0396 81° East 494 568 29,800 1,800 Climbing FlightAware ADS-B
12:58 32.9429 -94.9585 80° East 494 568 30,400 960 Climbing FlightAware ADS-B
12:58 32.9555 -94.8751 80° East 496 571 30,800 1,140 Climbing FlightAware ADS-B
12:59 32.9699 -94.7787 80° East 493 567 31,700 1,140 Climbing FlightAware ADS-B
13:00 32.9821 -94.6970 80° East 495 570 32,100 660 Climbing FlightAware ADS-B
13:00 32.9943 -94.6138 80° East 501 577 32,400 480 Climbing FlightAware ADS-B
13:01 33.0190 -94.4500 80° East 496 571 33,000 300 Climbing FlightAware
13:02 33.0320 -94.3580 80° East 496 571 33,000  Level FlightAware
13:03 33.0460 -94.2670 80° East 496 571 33,000 2,220 Level FlightAware
13:03 32.9938 -94.1527 119° Southeast 501 577 35,200 3,060 Climbing FlightAware ADS-B
13:03 32.9859 -94.0669 96° East 503 579 35,500 660 Climbing FlightAware ADS-B
13:04 32.9779 -93.9822 96° East 503 579 35,900 660 Climbing FlightAware ADS-B
13:04 32.9698 -93.8977 96° East 505 581 36,200 660 Climbing FlightAware ADS-B
13:05 32.9541 -93.7355 97° East 506 582 36,900 480 Climbing FlightAware ADS-B
13:06 32.9459 -93.6509 97° East 503 579 37,000 60 Climbing FlightAware ADS-B
13:06 32.9377 -93.5657 97° East 503 579 37,000  Level FlightAware ADS-B
13:07 32.9292 -93.4814 97° East 502 578 37,000  Level FlightAware ADS-B
13:07 32.9212 -93.3978 96° East 500 575 37,000  Level FlightAware ADS-B
13:08 32.9128 -93.3141 97° East 498 573 37,000  Level FlightAware ADS-B
13:09 32.9048 -93.2340 97° East 497 572 37,000 -120 Level FlightAware ADS-B
13:09 32.8963 -93.1498 97° East 496 571 36,900 -120 Descending FlightAware ADS-B
13:10 32.8880 -93.0684 97° East 496 571 36,900 60 Level FlightAware ADS-B
13:10 32.8792 -92.9832 97° East 497 572 37,000 60 Climbing FlightAware ADS-B
13:11 32.8703 -92.8956 97° East 497 572 37,000  Level FlightAware ADS-B
13:11 32.8617 -92.8061 97° East 499 574 37,000  Level Fort Worth Center
13:12 32.8494 -92.6411 95° East 499 574 37,000  Level Fort Worth Center
13:18 32.7490 -91.7740 95° East 495 570 37,000  Level FlightAware
13:18 32.7380 -91.6710 97° East 495 570 37,000  Level FlightAware
13:19 32.7230 -91.5460 98° East 498 573 37,000  Level FlightAware
13:20 32.7110 -91.4350 97° East 500 575 37,000  Level FlightAware
13:20 32.6990 -91.3370 98° East 500 575 37,000  Level FlightAware
13:21 32.6850 -91.2100 97° East 499 574 37,000  Level FlightAware
13:22 32.6710 -91.0960 98° East 497 572 37,000  Level FlightAware
13:22 32.6570 -90.9800 98° East 496 571 37,000  Level FlightAware
13:23 32.6470 -90.8890 97° East 495 570 37,000  Level FlightAware
13:24 32.6270 -90.7240 98° East 493 567 37,000  Level FlightAware
13:25 32.6100 -90.5930 99° East 489 563 37,000  Level FlightAware
13:26 32.5930 -90.4500 98° East 484 557 37,000  Level FlightAware
13:27 32.5750 -90.3090 99° East 482 555 37,000  Level FlightAware
13:27 32.5600 -90.1880 98° East 481 554 37,000  Level FlightAware
13:28 32.5480 -90.0930 98° East 480 552 37,000  Level FlightAware
13:29 32.5350 -89.9880 98° East 481 554 37,000  Level FlightAware
13:29 32.5210 -89.8800 99° East 481 554 37,000  Level FlightAware
13:30 32.5000 -89.7150 99° East 484 557 37,000  Level FlightAware
13:31 32.4880 -89.6210 99° East 486 559 37,000  Level FlightAware
13:32 32.4730 -89.5140 99° East 486 559 37,000  Level FlightAware
13:33 32.4610 -89.4240 99° East 486 559 37,000  Level FlightAware
13:33 32.4440 -89.2880 98° East 484 557 37,000  Level FlightAware
13:34 32.4280 -89.1650 99° East 480 552 37,000  Level FlightAware
13:35 32.4150 -89.0710 99° East 481 554 37,000  Level FlightAware
13:35 32.4030 -88.9820 99° East 481 554 37,000  Level FlightAware
13:36 32.3910 -88.8940 99° East 481 554 37,000  Level FlightAware
13:37 32.3790 -88.8050 99° East 481 554 37,000  Level FlightAware
13:37 32.3310 -88.6260 108° East 480 552 37,000  Level FlightAware
13:38 32.3050 -88.5250 107° East 479 551 37,000  Level FlightAware
13:39 32.2770 -88.4200 107° East 478 550 37,000  Level FlightAware
13:40 32.2500 -88.3180 107° East 477 549 37,000  Level FlightAware
13:40 32.2220 -88.2160 108° East 479 551 37,000  Level FlightAware
13:41 32.1940 -88.1100 107° East 479 551 37,000  Level FlightAware
13:42 32.1650 -88.0040 108° East 482 555 37,000  Level FlightAware
13:42 32.1430 -87.9180 107° East 482 555 37,000  Level FlightAware
13:43 32.1210 -87.8320 107° East 482 555 37,000  Level FlightAware
13:44 32.0830 -87.7010 109° East 486 559 37,000  Level FlightAware
13:44 32.0570 -87.6020 107° East 486 559 37,000  Level FlightAware
13:45 32.0350 -87.5160 107° East 486 559 37,000  Level FlightAware
13:46 31.9920 -87.3720 109° East 489 563 37,000  Level FlightAware
13:47 31.9550 -87.2310 107° East 488 562 37,000  Level FlightAware
13:48 31.9170 -87.1010 109° East 486 559 37,000  Level FlightAware
13:48 31.8940 -87.0150 107° East 486 559 37,000  Level FlightAware
13:49 31.8640 -86.9080 108° East 486 559 37,000  Level FlightAware
13:50 31.8400 -86.8230 108° East 486 559 37,000  Level FlightAware
13:50 31.8170 -86.7370 107° East 486 559 37,000  Level FlightAware
13:51 31.7930 -86.6510 108° East 486 559 37,000  Level FlightAware
13:52 31.7640 -86.5450 108° East 486 559 37,000  Level FlightAware
13:53 31.7400 -86.4590 108° East 486 559 37,000  Level FlightAware
13:53 31.7160 -86.3740 108° East 486 559 37,000  Level FlightAware
13:54 31.6930 -86.2880 107° East 486 559 37,000  Level FlightAware
13:55 31.6630 -86.1810 108° East 486 559 37,000  Level FlightAware
13:55 31.6390 -86.0960 108° East 486 559 37,000  Level FlightAware
13:56 31.6160 -86.0110 108° East 486 559 37,000  Level FlightAware
13:57 31.5920 -85.9250 108° East 486 559 37,000  Level FlightAware
13:57 31.4997 -85.6556 108° East 488 562 37,000  Level Jacksonville Center
13:58 31.4569 -85.5083 109° East 493 567 37,000  Level Jacksonville Center
13:59 31.4139 -85.3561 108° East 493 567 37,000  Level Jacksonville Center
14:00 31.3667 -85.2064 110° East 488 562 37,000 -360 Level Jacksonville Center
14:06 31.1050 -84.4060 110° East 475 547 35,000 -360 Descending FlightAware
14:06 31.0720 -84.3190 114° Southeast 476 548 35,000  Level FlightAware
14:07 31.0240 -84.1930 114° Southeast 479 551 35,000  Level FlightAware
14:11 30.8360 -83.7020 114° Southeast 483 556 35,000 -60 Level FlightAware
14:11 30.8290 -83.6820 112° Southeast 483 556 34,800 -540 Descending FlightAware
14:12 30.8210 -83.6610 114° Southeast 483 556 34,300 -1,140 Descending FlightAware
14:13 30.8210 -83.6610 114° Southeast 484 557 33,000 -960 Descending FlightAware
14:14 30.7900 -83.5800 114° Southeast 484 557 33,000  Level FlightAware
14:14 30.7590 -83.4990 114° Southeast 484 557 33,000  Level FlightAware
14:15 30.7280 -83.4180 114° Southeast 484 557 33,000  Level FlightAware
14:16 30.6970 -83.3370 114° Southeast 484 557 33,000  Level FlightAware
14:16 30.6580 -83.2360 114° Southeast 484 557 33,000  Level FlightAware
14:17 30.6270 -83.1550 114° Southeast 484 557 33,000  Level FlightAware
14:18 30.5960 -83.0750 114° Southeast 484 557 33,000  Level FlightAware
14:18 30.5650 -82.9940 114° Southeast 484 557 33,000  Level FlightAware
14:19 30.5340 -82.9130 114° Southeast 484 557 33,000  Level FlightAware
14:20 30.4960 -82.8120 114° Southeast 484 557 33,000  Level FlightAware
14:21 30.4650 -82.7320 114° Southeast 484 557 33,000  Level FlightAware
14:21 30.4340 -82.6510 114° Southeast 484 557 33,000  Level FlightAware
14:22 30.4030 -82.5700 114° Southeast 484 557 33,000 -2,340 Level FlightAware
14:27 29.3910 -82.1860 162° South 415 478 19,400 -2,580 Descending FlightAware
14:28 29.3240 -82.1520 156° South 405 466 18,000 -1,980 Descending FlightAware
14:29 29.2290 -82.1040 156° South 384 442 16,300 -1,860 Descending FlightAware
14:29 29.1660 -82.0730 157° South 372 428 15,100 -1,200 Descending FlightAware
14:30 29.1020 -82.0400 156° South 363 418 14,600 -1,620 Descending FlightAware
14:31 29.0480 -82.0130 156° South 347 399 13,000 -1,980 Descending FlightAware
14:32 28.9520 -81.9650 156° South 329 379 11,300 -1,200 Descending FlightAware
14:33 28.8990 -81.9390 157° South 301 346 10,900 -480 Descending FlightAware
14:33 28.8820 -81.9260 146° Southeast 302 348 10,900 -240 Level FlightAware
14:33 28.8700 -81.9070 126° Southeast 303 349 10,800 -1,320 Descending FlightAware
14:34 28.8490 -81.8490 112° Southeast 290 334 9,700 -1,620 Descending FlightAware
14:34 28.8410 -81.8200 107° East 281 323 9,200 -1,080 Descending FlightAware
14:34 28.8340 -81.7950 108° East 269 310 8,900 -480 Descending FlightAware
14:35 28.8220 -81.7580 110° East 269 310 8,800 -120 Descending FlightAware
14:35 28.8110 -81.7180 107° East 268 308 8,800  Level FlightAware
14:36 28.8060 -81.7030 111° Southeast 266 306 8,800  Level FlightAware
14:36 28.7970 -81.6700 107° East 266 306 8,800  Level FlightAware
14:36 28.7860 -81.6330 109° East 266 306 8,800 -720 Level FlightAware
14:37 28.7730 -81.5900 109° East 269 310 8,100 -1,620 Descending FlightAware
14:37 28.7670 -81.5690 108° East 264 304 7,600 -2,160 Descending FlightAware
14:38 28.7550 -81.5300 109° East 265 305 6,500 -1,860 Descending FlightAware
14:38 28.7450 -81.4970 109° East 259 298 5,900 -1,080 Descending FlightAware
14:38 28.7380 -81.4760 111° Southeast 256 295 5,800 -1,500 Descending FlightAware
14:39 28.7220 -81.4410 118° Southeast 256 295 4,800 -1,980 Descending FlightAware
14:39 28.7120 -81.4340 148° Southeast 258 297 4,500 -1,380 Descending FlightAware
14:40 28.6840 -81.4170 152° Southeast 238 274 3,900 -1,140 Descending FlightAware
14:40 28.6530 -81.3990 153° Southeast 219 252 3,400 -900 Descending FlightAware
14:40 28.6310 -81.3850 151° Southeast 202 232 3,100 -660 Descending FlightAware
14:41 28.6060 -81.3710 154° Southeast 188 216 2,800 -600 Descending FlightAware
14:41 28.5870 -81.3600 153° Southeast 179 206 2,600 -600 Descending FlightAware
14:42 28.5750 -81.3540 156° South 167 192 2,400 -600 Descending FlightAware
14:42 28.5630 -81.3470 153° Southeast 181 208 2,300 -180 Descending FlightAware
14:42 28.5450 -81.3370 154° Southeast 167 192 2,300 -600 Level FlightAware
14:43 28.5250 -81.3290 161° South 164 189 1,800 -1,200 Descending FlightAware
14:43 28.5000 -81.3280 178° South 160 184 1,100 -1,320 Descending FlightAware
14:44 28.4840 -81.3270 177° South 163 188 700 -960 Descending FlightAware
14:44 28.4630 -81.3270 180° South 133 153 300 -840 Descending FlightAware
14:45 28.4390 -81.3270 180° South 127 146 -540 Descending FlightAware